SCP
-0 0 -0 -0 0 -0 -0 -0 0 -0 0 0 -0 -0 -0 -0 0 -0 0 0 0 0 0 0 0 -0 -0 0 0 -0 0 0 -0 -0 -0 -0 -0 -0 -0 -0 -0 0 -0 -0 -0 -0 -0 -0 -0
-0 0 0 0 0 0 0 -0 -0 -0 -0 -0 -0 -0 -0 0 -0 -0 -0 0 0 0 0 0 -0 0 -0 -0 0 0 0 0 0 -0 -0 -0 -0 -0 -0 -0 0 0 0 -0 0 0 -0 -0 -0
0 0 0 0 0 0 -0 -0 -0 -0 -0 -0 -0 -0 0 0 -0 -0 0 0 -0 0 0 0 -0 -0 -0 -0 -0 0 0 0 0 -0 0 0 -0 -0 0 0 0 0 0 0 0 0 0 -0 -0
0 0 -0 -0 -0 0 0 0 -0 -0 -0 -0 -0 -0 0 -0 -0 -0 -0 -0 -0 0 0 -0 -0 -0 -0 -0 -0 -0 0 0 0 0 0 0 0 0 0 0 0 0 0 0 0 -0 0 0 -0
0 0 -0 -0 -0 -0 -0 -0 -0 -0 -0 -0 -0 0 0 0 -0 -0 -0 -0 -0 0 0 -0 -0 -0 -0 -0 0 0 0 0 0 0 0 0 0 0 0 0 0 0 0 0 0 0 0 -0 0
0 0 -0 -0 -0 -0 -0 -0 -0 -0 -0 -0 -0 -0 0 -0 -0 -0 -0 -0 -0 -0 0 0 -0 -0 -0 -0 0 -0 0 0 0 0 0 0 0 0 0 0 0 0 -0 0 0 0 0 0 -0
0 0 -0 -0 -0 -0 0 -0 -0 -0 -0 0 -0 0 0 0 0 -0 -0 -0 -0 0 0 -0 -0 -0 -0 -0 -0 0 0 0 0 0 0 0 0 0 0 0 0 -0 0 -0 0 -0 0 0 -0
0 0 -0 -0 -0 -0 0 0 -0 -0 -0 -0 -0 -0 -0 -0 -0 -0 0 -0 -0 0 0 0 -0 -0 -0 -0 0 0 0 0 -0 -0 -0 0 0 0 0 0 0 -0 0 0 -0 0 0 -0 -0
0 -0 0 -0 -0 0 0 0 0 -0 -0 0 0 -0 -0 -0 -0 -0 -0 -0 -0 0 0 0 -0 -0 -0 -0 0 0 0 0 -0 -0 -0 0 -0 -0 0 0 -0 -0 -0 0 0 -0 -0 0 -0
0 -0 -0 0 0 0 -0 -0 0 0 -0 0 -0 -0 -0 -0 -0 -0 -0 -0 0 0 -0 -0 -0 -0 -0 -0 -0 -0 -0 -0 -0 -0 -0 0 -0 -0 -0 -0 -0 -0 -0 -0 0 -0 -0 -0 0
0 0 0 -0 -0 0 0 0 0 0 0 0 -0 -0 -0 -0 -0 -0 -0 -0 0 0 -0 -0 -0 -0 -0 -0 -0 -0 -0 -0 -0 0 0 0 0 -0 -0 -0 -0 0 -0 -0 -0 -0 -0 -0 0
0 0 0 0 0 0 0 0 0 0 0 0 -0 -0 -0 -0 -0 -0 -0 -0 -0 0 -0 0 -0 -0 -0 -0 -0 -0 -0 -0 -0 0 0 0 0 0 -0 -0 0 -0 0 -0 -0 -0 -0 -0 -0
0 0 0 0 0 0 0 0 0 0 -0 -0 -0 -0 -0 -0 0 0 0 -0 -0 0 -0 -0 0 -0 0 -0 -0 0 -0 -0 -0 -0 0 0 0 0 0 -0 -0 -0 0 -0 -0 -0 0 -0 -0
0 0 0 0 0 0 0 0 0 0 -0 -0 -0 -0 -0 0 0 0 0 -0 -0 0 0 0 0 0 0 -0 -0 0 0 -0 -0 -0 -0 -0 0 0 0 0 -0 -0 -0 -0 0 0 0 0 -0
0 0 -0 -0 0 0 0 -0 0 -0 0 0 0 0 0 0 0 -0 0 -0 -0 0 0 0 0 0 0 0 0 -0 -0 0 0 -0 -0 -0 0 0 0 0 0 0 -0 -0 -0 0 0 0 -0
0 -0 -0 0 0 0 0 0 0 0 0 0 0 -0 -0 0 -0 0 -0 0 -0 -0 -0 0 0 0 0 0 0 0 0 0 0 -0 -0 -0 0 -0 0 0 0 0 -0 -0 -0 0 0 -0 -0
0 0 -0 0 0 0 0 0 0 0 0 0 0 0 -0 -0 0 0 0 -0 -0 0 -0 0 0 0 0 0 0 0 0 0 -0 0 -0 -0 0 -0 -0 -0 0 0 -0 -0 -0 -0 0 -0 -0
0 0 -0 0 0 0 0 0 0 0 0 0 0 0 0 0 -0 0 0 0 -0 0 0 0 0 0 0 0 0 0 0 -0 0 0 -0 -0 -0 -0 -0 -0 -0 -0 0 -0 0 -0 -0 -0 -0
0 -0 0 0 0 0 0 -0 0 0 0 0 0 0 0 0 0 0 -0 -0 0 0 0 0 0 0 0 0 0 0 0 -0 -0 0 -0 -0 0 0 0 0 0 0 -0 -0 0 -0 0 0 0
-0 -0 0 0 0 0 0 0 -0 -0 -0 -0 -0 0 0 0 0 0 0 0 -0 -0 0 0 0 0 0 0 0 0 -0 -0 -0 0 0 0 0 0 0 0 -0 -0 0 -0 0 -0 0 0 0
0 0 0 -0 0 0 0 0 0 0 0 -0 -0 -0 0 -0 0 0 0 0 0 0 0 -0 0 -0 -0 -0 0 0 -0 -0 -0 -0 0 0 0 0 0 0 0 -0 -0 -0 -0 0 -0 0 0
0 -0 -0 -0 0 0 0 0 0 0 0 -0 -0 -0 -0 -0 -0 -0 0 0 0 0 -0 -0 0 -0 -0 -0 0 0 0 -0 -0 -0 0 0 0 0 0 0 0 0 -0 -0 -0 0 0 -0 0
-0 -0 0 -0 0 0 0 0 0 -0 -0 -0 -0 -0 -0 -0 -0 -0 -0 -0 -0 0 0 -0 -0 -0 -0 -0 0 0 0 -0 -0 -0 0 0 0 0 0 0 -0 0 0 -0 -0 -0 0 -0 0
-0 -0 -0 -0 0 0 0 0 0 0 0 -0 -0 -0 -1 -1 -1 -0 -0 -0 -0 -0 -0 0 -0 -0 -0 -0 0 -0 -0 0 -0 -0 0 0 0 0 0 0 -0 0 -0 -0 -0 -0 -0 -0 -0
-0 -0 -0 0 0 -0 0 0 0 0 0 0 0 0 0 -0 -0 -0 -0 -0 -0 -0 -0 -0 -0 -0 -0 -0 -0 -0 -0 -0 -0 0 0 -0 0 0 0 -0 -0 0 -0 -0 -0 -0 -0 -0 0
0 0 -0 0 -0 0 0 0 0 -0 0 -0 0 -0 0 0 0 0 -0 -0 -0 -0 -0 -0 -0 -0 -0 -0 -0 -0 -0 -0 0 0 0 0 0 -0 -0 -0 -0 -0 -0 -0 -0 -0 -0 -0 -0
-0 0 0 0 0 0 0 0 0 0 0 -0 0 0 -0 0 0 0 0 0 -0 -0 -0 -0 -0 -0 -0 -0 -0 -0 -0 -0 0 0 0 0 0 0 -0 -0 -0 -0 -0 -0 -0 -0 -0 -0 0
-0 -0 0 -0 0 0 0 0 0 0 -0 -0 0 0 0 0 0 0 0 -0 -0 -0 -0 -0 -0 -0 -0 -0 -0 -0 -0 0 0 0 0 0 0 0 0 0 0 0 0 -0 -0 -0 -0 0 0
-0 0 0 0 0 0 0 -0 -0 0 0 0 0 -0 -0 0 0 0 -0 0 0 -0 -0 -0 -0 -0 -0 -0 -0 -0 -0 0 0 0 0 0 0 0 0 0 0 0 0 0 0 0 0 0 0
0 -0 -0 0 0 -0 0 -0 -0 -0 0 0 -0 0 0 -0 0 -0 0 0 -0 -1 -0 -0 -0 -0 -0 -0 -0 -1 -0 -0 -0 -0 0 0 -0 0 0 0 0 0 0 0 0 0 0 0 0
Wind_Speed_500mb
9 2 7 5 2 0 4 5 6 13 10 24 29 29 24 24 1 7 51 49 59 55 46 41 35 34 32 28 26 25 26 27 24 21 22 25 27 27 28 31 33 36 37 39 43 45 46 46 46
12 8 8 4 5 4 3 8 14 10 35 44 35 20 27 8 19 56 55 53 54 51 44 40 36 34 30 26 26 24 22 24 25 23 21 26 25 25 29 36 35 35 38 39 42 43 45 46 47
12 8 7 3 3 8 9 5 30 33 23 17 14 27 11 12 53 63 55 61 53 49 45 42 38 33 28 26 24 24 22 22 25 24 23 25 25 26 29 39 38 36 37 39 42 41 45 52 49
4 8 11 1 5 2 16 19 36 27 23 14 38 18 23 17 42 50 53 58 55 52 48 42 37 33 29 24 24 25 22 20 21 26 26 27 28 27 32 40 37 35 34 36 42 44 45 44 41
5 4 5 5 5 8 6 20 33 15 16 26 18 14 25 22 40 57 55 58 57 53 46 42 36 32 29 25 27 28 25 22 23 34 32 33 32 30 37 39 34 32 34 33 38 40 42 39 37
4 3 2 3 10 14 14 30 31 24 34 31 33 32 14 46 58 54 49 53 50 49 47 44 37 33 30 28 30 32 31 34 42 41 36 35 33 32 33 32 31 31 31 31 35 35 39 37 32
9 8 7 9 12 13 17 41 27 30 33 21 57 17 29 68 61 51 52 52 49 45 47 44 40 34 31 30 32 34 36 39 41 39 36 36 32 29 28 26 27 29 27 29 34 38 39 37 30
10 3 10 7 11 8 21 31 36 47 17 51 51 16 37 83 68 62 56 54 52 52 43 43 41 37 35 35 34 35 36 38 39 36 33 32 30 27 24 23 23 25 23 26 31 34 37 35 32
10 2 8 10 12 19 25 18 38 36 48 18 24 45 74 83 68 62 67 57 52 52 49 41 43 42 37 37 37 38 36 33 30 32 31 31 28 24 21 22 23 21 21 22 31 32 32 35 34
3 2 10 6 12 26 38 32 28 19 32 8 23 56 78 73 65 76 76 59 49 53 49 44 45 44 39 36 36 37 41 34 25 23 19 27 27 25 18 20 19 21 19 18 23 26 26 27 30
4 8 9 10 44 21 36 32 8 36 6 27 64 78 76 69 78 78 70 55 48 54 51 44 46 46 38 33 29 30 31 25 24 19 6 16 22 24 20 16 22 22 20 16 17 21 27 26 30
4 30 38 17 23 27 24 16 12 22 14 35 63 98 81 72 74 70 67 60 56 55 45 41 42 36 32 24 21 19 21 18 19 17 15 16 22 27 21 20 20 21 18 14 14 21 21 29 25
10 17 34 38 46 30 27 11 16 24 40 44 69 67 70 72 75 59 55 60 58 55 53 39 32 34 32 25 18 20 21 13 12 11 6 8 14 16 12 21 24 18 15 21 23 25 12 34 31
10 26 46 23 40 40 36 31 18 26 54 59 66 61 67 68 74 55 54 71 61 52 52 44 36 36 30 28 21 17 12 13 9 8 6 6 6 11 6 24 25 23 20 15 13 16 8 14 40
15 12 13 16 32 28 54 11 21 51 52 55 52 57 64 63 60 56 57 60 61 55 50 46 40 36 36 27 25 19 19 13 16 13 11 10 4 6 9 21 20 22 18 13 19 17 6 20 39
2 7 5 12 31 8 15 10 35 54 58 48 50 54 62 60 54 56 56 53 46 45 47 38 41 39 36 29 29 22 20 10 10 11 8 10 11 7 7 18 21 18 21 20 18 20 18 23 22
2 7 9 8 7 10 10 14 40 52 49 48 49 54 53 55 55 62 59 49 44 46 41 44 38 32 29 27 32 32 25 13 10 13 15 13 9 10 7 9 11 23 29 27 23 21 20 25 21
7 11 11 11 10 18 15 18 32 53 49 51 48 50 47 61 62 59 67 55 53 55 46 49 40 36 26 18 28 28 30 22 15 9 13 12 14 6 8 10 17 20 30 34 39 29 27 24 23
8 19 15 8 15 13 14 34 30 44 39 43 46 49 51 52 62 61 64 62 58 56 46 53 58 48 40 30 25 23 33 20 18 15 10 10 10 5 4 10 17 26 19 32 41 38 34 31 33
23 32 14 6 5 13 9 18 29 37 45 55 55 51 58 53 50 59 70 68 58 63 53 60 59 50 36 34 22 19 26 25 20 16 14 16 14 13 10 9 11 15 18 24 24 37 32 30 41
15 15 11 19 9 19 23 8 9 11 35 44 51 62 55 61 58 66 72 69 65 67 70 65 61 43 35 31 22 26 22 28 23 18 19 18 17 13 12 11 14 14 16 18 18 23 33 29 30
6 13 11 38 25 14 9 9 12 20 17 34 48 55 59 58 66 74 73 70 67 63 59 74 69 50 45 40 33 33 31 26 22 22 15 19 18 20 20 19 19 19 17 19 18 22 29 36 39
16 6 8 41 14 15 6 11 4 17 14 23 44 60 70 71 69 72 76 70 65 63 66 67 80 73 62 51 35 37 35 28 24 25 26 18 21 22 26 26 28 22 24 24 25 25 22 30 39
5 10 16 10 10 4 10 8 9 4 15 26 43 60 71 74 77 69 67 64 64 62 63 60 74 68 66 60 47 40 42 34 29 24 27 23 20 18 18 33 23 26 25 25 28 26 25 25 29
11 13 7 7 5 6 7 13 11 14 17 7 13 17 26 61 74 69 67 65 64 56 53 57 63 70 67 63 59 50 41 42 33 30 31 29 21 30 5 11 7 32 23 24 26 30 33 33 29
9 15 11 7 5 3 16 5 9 14 22 12 29 24 21 23 48 62 67 57 51 54 50 52 62 68 65 60 57 50 45 39 43 41 37 38 33 25 20 18 18 20 30 31 28 32 33 33 37
6 3 10 13 7 10 5 1 12 14 13 22 32 21 19 24 20 15 37 58 59 58 53 59 58 58 60 56 50 48 51 44 36 37 44 48 38 31 29 27 25 26 27 32 31 30 31 33 33
2 5 10 7 7 1 3 4 9 15 13 13 21 15 26 30 25 25 22 31 58 79 63 58 60 56 58 55 48 50 52 46 41 36 38 46 50 45 36 28 28 29 32 30 32 32 28 33 32
11 10 6 8 10 11 5 11 13 17 20 14 10 22 26 28 29 37 50 75 72 91 85 72 68 62 62 62 56 61 53 51 46 45 42 41 44 42 43 43 40 39 39 37 34 36 30 35 33
12 9 9 10 4 6 9 10 14 16 11 13 16 10 15 24 39 43 61 68 69 95 93 79 72 70 66 61 56 58 54 52 49 46 37 31 35 39 40 39 41 45 50 53 44 44 38 38 35
Wind_Direction_500mb
118 125 291 307 68 178 174 211 155 114 60 79 112 107 112 44 49 154 146 158 158 152 150 146 140 132 127 119 111 109 110 110 116 123 125 120 112 115 122 128 124 117 113 115 117 117 117 118 119
178 224 294 258 125 101 109 245 97 114 134 100 78 66 55 92 91 133 145 162 159 155 152 147 144 137 130 123 115 112 110 114 116 123 129 126 119 120 125 134 128 124 118 121 121 126 126 127 128
186 252 252 218 191 169 143 271 121 127 122 92 104 63 68 94 132 140 147 157 158 153 148 145 143 139 132 122 116 113 112 116 124 124 131 129 123 122 125 137 134 130 124 122 122 124 126 126 125
142 226 245 233 224 102 155 186 143 125 94 82 107 78 102 142 138 149 145 157 152 147 145 143 143 139 129 122 116 110 109 111 131 136 133 129 126 120 130 136 136 133 126 124 128 131 133 130 125
293 338 333 261 231 113 160 147 137 134 97 126 125 127 117 149 158 144 151 156 151 146 145 143 142 135 127 120 115 108 101 89 131 139 134 129 124 119 127 132 135 134 131 127 130 133 138 132 127
84 13 327 322 122 150 164 159 148 112 125 119 108 120 108 155 149 154 156 154 154 150 147 143 140 133 123 115 111 110 101 96 114 127 127 129 124 122 128 133 132 129 128 129 130 136 142 132 126
62 3 331 302 119 159 161 167 174 146 148 143 133 122 145 157 158 162 156 150 155 153 150 145 136 129 121 111 111 111 106 105 115 121 125 127 125 125 129 135 136 134 131 130 134 139 150 150 144
57 52 294 245 188 153 163 175 169 156 150 139 139 165 169 161 164 164 162 159 159 153 152 143 132 124 119 112 112 112 110 113 115 119 121 125 125 130 135 140 141 144 141 131 136 142 156 161 156
176 168 234 240 178 96 158 182 175 165 139 162 186 166 159 162 165 175 173 165 162 157 150 144 129 118 116 112 111 110 111 115 122 128 133 133 131 133 132 143 144 143 135 128 141 149 161 168 165
26 227 249 295 78 132 136 138 143 139 158 101 125 145 159 162 172 170 167 165 162 160 152 146 132 120 114 116 116 108 111 110 117 120 129 131 134 139 140 148 146 146 140 133 144 157 154 173 181
185 243 345 194 143 142 149 172 128 136 201 174 152 156 160 159 164 166 165 163 159 163 151 149 137 127 110 118 119 115 119 108 110 123 114 150 146 151 159 164 152 164 160 155 146 161 168 179 196
260 250 274 252 144 143 160 157 106 152 184 175 167 160 159 157 153 157 168 164 164 157 156 148 150 142 131 124 124 130 125 112 115 113 128 162 183 163 163 170 163 174 179 169 162 167 176 198 189
203 300 313 316 153 117 117 123 104 99 137 148 145 156 159 159 159 149 160 172 170 157 151 152 150 141 143 148 132 118 131 125 123 139 110 171 195 175 195 177 169 175 199 204 219 203 238 211 238
232 282 289 308 134 128 116 126 91 128 136 145 157 159 163 166 167 158 147 170 172 164 163 160 166 160 164 162 157 142 153 152 177 189 229 307 230 243 261 192 177 184 210 195 203 201 237 197 180
286 300 343 268 118 122 112 85 128 150 144 145 160 166 169 171 175 173 164 154 161 162 168 177 175 176 181 180 172 159 173 184 225 234 244 262 298 261 221 190 196 206 209 227 178 176 138 187 177
341 13 57 209 145 142 97 126 149 157 148 151 160 169 175 181 183 186 179 175 170 167 170 181 188 187 190 196 198 183 188 183 173 225 267 264 264 258 220 198 198 217 219 192 176 174 159 156 178
235 261 211 193 140 126 94 123 166 162 156 155 171 177 180 179 186 196 196 195 200 190 191 193 193 194 204 217 208 209 205 192 216 254 277 275 326 323 199 191 207 219 216 212 209 193 177 173 180
165 244 179 187 193 111 113 130 157 166 162 165 175 184 186 185 193 196 198 206 194 191 196 195 211 209 210 202 207 198 203 202 215 239 271 309 329 316 270 198 201 206 215 212 214 206 197 195 187
199 239 205 234 209 101 125 128 158 165 169 165 178 187 190 194 194 201 201 200 191 194 208 213 209 203 209 199 183 202 192 202 211 222 256 285 314 30 267 232 219 220 208 216 217 215 218 206 194
228 222 200 184 131 89 92 125 154 171 175 171 178 191 197 197 196 199 197 199 199 199 198 194 206 214 203 199 213 216 208 203 187 226 254 274 284 309 313 304 256 253 189 183 223 226 220 215 203
318 135 177 161 171 91 129 64 175 199 166 173 182 194 197 197 197 198 199 203 207 210 207 205 210 207 212 211 219 213 207 204 217 230 239 254 261 303 315 304 280 258 218 229 235 215 214 223 207
298 168 129 132 131 164 187 191 233 176 181 177 187 191 195 201 206 210 209 213 214 210 213 216 217 224 233 227 232 231 229 214 213 212 254 244 254 274 283 305 295 270 252 236 230 225 225 226 222
217 234 118 161 113 126 229 99 241 130 200 196 187 197 198 198 205 207 210 214 218 220 220 219 226 235 234 225 237 235 235 228 230 239 245 247 235 253 258 262 255 260 274 263 244 232 244 231 225
333 2 35 71 128 121 206 102 16 328 224 201 195 199 200 203 207 216 221 222 225 228 226 226 227 232 229 229 234 239 232 222 217 225 246 239 248 343 268 250 251 261 252 247 249 248 239 227 225
78 61 319 342 28 209 151 66 224 301 310 130 160 173 212 208 210 211 215 216 223 225 217 222 224 226 227 231 232 238 242 232 228 228 242 244 256 257 244 125 247 237 245 240 234 244 241 233 238
192 151 154 226 143 84 36 131 250 166 299 199 145 139 159 185 204 216 214 210 214 220 214 213 218 219 219 223 230 234 236 235 236 234 239 250 253 257 274 286 297 251 241 247 237 238 242 243 239
270 247 191 102 61 101 160 329 305 327 263 241 114 149 154 141 179 224 220 234 228 218 218 216 218 223 220 223 225 230 232 232 237 244 240 242 247 248 264 269 278 250 278 252 250 247 244 246 248
168 223 14 26 138 102 349 214 216 244 251 292 128 153 170 121 197 232 210 248 241 237 229 220 221 222 228 229 231 238 239 243 244 249 253 244 246 251 249 254 256 265 270 266 246 255 252 250 248
10 352 39 114 124 150 117 260 216 220 224 231 58 205 170 148 174 223 240 285 250 236 235 234 227 232 236 240 245 244 252 252 252 253 263 253 248 245 248 256 265 264 271 267 258 257 260 256 259
170 204 139 112 311 48 118 253 236 237 296 280 330 305 96 173 168 220 268 273 233 229 231 233 234 238 241 246 251 254 258 257 255 260 260 260 252 250 257 259 263 265 267 260 260 260 261 259 259
Wind_Speed_850mb
9 2 7 5 2 0 4 5 6 13 10 24 29 29 24 24 1 7 51 49 59 55 46 41 35 34 32 28 26 25 26 27 24 21 22 25 27 27 28 31 33 36 37 39 43 45 46 46 46
12 8 8 4 5 4 3 8 14 10 35 44 35 20 27 8 19 56 55 53 54 51 44 40 36 34 30 26 26 24 22 24 25 23 21 26 25 25 29 36 35 35 38 39 42 43 45 46 47
12 8 7 3 3 8 9 5 30 33 23 17 14 27 11 12 53 63 55 61 53 49 45 42 38 33 28 26 24 24 22 22 25 24 23 25 25 26 29 39 38 36 37 39 42 41 45 52 49
4 8 11 1 5 2 16 19 36 27 23 14 38 18 23 17 42 50 53 58 55 52 48 42 37 33 29 24 24 25 22 20 21 26 26 27 28 27 32 40 37 35 34 36 42 44 45 44 41
5 4 5 5 5 8 6 20 33 15 16 26 18 14 25 22 40 57 55 58 57 53 46 42 36 32 29 25 27 28 25 22 23 34 32 33 32 30 37 39 34 32 34 33 38 40 42 39 37
4 3 2 3 10 14 14 30 31 24 34 31 33 32 14 46 58 54 49 53 50 49 47 44 37 33 30 28 30 32 31 34 42 41 36 35 33 32 33 32 31 31 31 31 35 35 39 37 32
9 8 7 9 12 13 17 41 27 30 33 21 57 17 29 68 61 51 52 52 49 45 47 44 40 34 31 30 32 34 36 39 41 39 36 36 32 29 28 26 27 29 27 29 34 38 39 37 30
10 3 10 7 11 8 21 31 36 47 17 51 51 16 37 83 68 62 56 54 52 52 43 43 41 37 35 35 34 35 36 38 39 36 33 32 30 27 24 23 23 25 23 26 31 34 37 35 32
10 2 8 10 12 19 25 18 38 36 48 18 24 45 74 83 68 62 67 57 52 52 49 41 43 42 37 37 37 38 36 33 30 32 31 31 28 24 21 22 23 21 21 22 31 32 32 35 34
3 2 10 6 12 26 38 32 28 19 32 8 23 56 78 73 65 76 76 59 49 53 49 44 45 44 39 36 36 37 41 34 25 23 19 27 27 25 18 20 19 21 19 18 23 26 26 27 30
4 8 9 10 44 21 36 32 8 36 6 27 64 78 76 69 78 78 70 55 48 54 51 44 46 46 38 33 29 30 31 25 24 19 6 16 22 24 20 16 22 22 20 16 17 21 27 26 30
4 30 38 17 23 27 24 16 12 22 14 35 63 98 81 72 74 70 67 60 56 55 45 41 42 36 32 24 21 19 21 18 19 17 15 16 22 27 21 20 20 21 18 14 14 21 21 29 25
10 17 34 38 46 30 27 11 16 24 40 44 69 67 70 72 75 59 55 60 58 55 53 39 32 34 32 25 18 20 21 13 12 11 6 8 14 16 12 21 24 18 15 21 23 25 12 34 31
10 26 46 23 40 40 36 31 18 26 54 59 66 61 67 68 74 55 54 71 61 52 52 44 36 36 30 28 21 17 12 13 9 8 6 6 6 11 6 24 25 23 20 15 13 16 8 14 40
15 12 13 16 32 28 54 11 21 51 52 55 52 57 64 63 60 56 57 60 61 55 50 46 40 36 36 27 25 19 19 13 16 13 11 10 4 6 9 21 20 22 18 13 19 17 6 20 39
2 7 5 12 31 8 15 10 35 54 58 48 50 54 62 60 54 56 56 53 46 45 47 38 41 39 36 29 29 22 20 10 10 11 8 10 11 7 7 18 21 18 21 20 18 20 18 23 22
2 7 9 8 7 10 10 14 40 52 49 48 49 54 53 55 55 62 59 49 44 46 41 44 38 32 29 27 32 32 25 13 10 13 15 13 9 10 7 9 11 23 29 27 23 21 20 25 21
7 11 11 11 10 18 15 18 32 53 49 51 48 50 47 61 62 59 67 55 53 55 46 49 40 36 26 18 28 28 30 22 15 9 13 12 14 6 8 10 17 20 30 34 39 29 27 24 23
8 19 15 8 15 13 14 34 30 44 39 43 46 49 51 52 62 61 64 62 58 56 46 53 58 48 40 30 25 23 33 20 18 15 10 10 10 5 4 10 17 26 19 32 41 38 34 31 33
23 32 14 6 5 13 9 18 29 37 45 55 55 51 58 53 50 59 70 68 58 63 53 60 59 50 36 34 22 19 26 25 20 16 14 16 14 13 10 9 11 15 18 24 24 37 32 30 41
15 15 11 19 9 19 23 8 9 11 35 44 51 62 55 61 58 66 72 69 65 67 70 65 61 43 35 31 22 26 22 28 23 18 19 18 17 13 12 11 14 14 16 18 18 23 33 29 30
6 13 11 38 25 14 9 9 12 20 17 34 48 55 59 58 66 74 73 70 67 63 59 74 69 50 45 40 33 33 31 26 22 22 15 19 18 20 20 19 19 19 17 19 18 22 29 36 39
16 6 8 41 14 15 6 11 4 17 14 23 44 60 70 71 69 72 76 70 65 63 66 67 80 73 62 51 35 37 35 28 24 25 26 18 21 22 26 26 28 22 24 24 25 25 22 30 39
5 10 16 10 10 4 10 8 9 4 15 26 43 60 71 74 77 69 67 64 64 62 63 60 74 68 66 60 47 40 42 34 29 24 27 23 20 18 18 33 23 26 25 25 28 26 25 25 29
11 13 7 7 5 6 7 13 11 14 17 7 13 17 26 61 74 69 67 65 64 56 53 57 63 70 67 63 59 50 41 42 33 30 31 29 21 30 5 11 7 32 23 24 26 30 33 33 29
9 15 11 7 5 3 16 5 9 14 22 12 29 24 21 23 48 62 67 57 51 54 50 52 62 68 65 60 57 50 45 39 43 41 37 38 33 25 20 18 18 20 30 31 28 32 33 33 37
6 3 10 13 7 10 5 1 12 14 13 22 32 21 19 24 20 15 37 58 59 58 53 59 58 58 60 56 50 48 51 44 36 37 44 48 38 31 29 27 25 26 27 32 31 30 31 33 33
2 5 10 7 7 1 3 4 9 15 13 13 21 15 26 30 25 25 22 31 58 79 63 58 60 56 58 55 48 50 52 46 41 36 38 46 50 45 36 28 28 29 32 30 32 32 28 33 32
11 10 6 8 10 11 5 11 13 17 20 14 10 22 26 28 29 37 50 75 72 91 85 72 68 62 62 62 56 61 53 51 46 45 42 41 44 42 43 43 40 39 39 37 34 36 30 35 33
12 9 9 10 4 6 9 10 14 16 11 13 16 10 15 24 39 43 61 68 69 95 93 79 72 70 66 61 56 58 54 52 49 46 37 31 35 39 40 39 41 45 50 53 44 44 38 38 35
Wind_Direction_850mb
118 125 291 307 68 178 174 211 155 114 60 79 112 107 112 44 49 154 146 158 158 152 150 146 140 132 127 119 111 109 110 110 116 123 125 120 112 115 122 128 124 117 113 115 117 117 117 118 119
178 224 294 258 125 101 109 245 97 114 134 100 78 66 55 92 91 133 145 162 159 155 152 147 144 137 130 123 115 112 110 114 116 123 129 126 119 120 125 134 128 124 118 121 121 126 126 127 128
186 252 252 218 191 169 143 271 121 127 122 92 104 63 68 94 132 140 147 157 158 153 148 145 143 139 132 122 116 113 112 116 124 124 131 129 123 122 125 137 134 130 124 122 122 124 126 126 125
142 226 245 233 224 102 155 186 143 125 94 82 107 78 102 142 138 149 145 157 152 147 145 143 143 139 129 122 116 110 109 111 131 136 133 129 126 120 130 136 136 133 126 124 128 131 133 130 125
293 338 333 261 231 113 160 147 137 134 97 126 125 127 117 149 158 144 151 156 151 146 145 143 142 135 127 120 115 108 101 89 131 139 134 129 124 119 127 132 135 134 131 127 130 133 138 132 127
84 13 327 322 122 150 164 159 148 112 125 119 108 120 108 155 149 154 156 154 154 150 147 143 140 133 123 115 111 110 101 96 114 127 127 129 124 122 128 133 132 129 128 129 130 136 142 132 126
62 3 331 302 119 159 161 167 174 146 148 143 133 122 145 157 158 162 156 150 155 153 150 145 136 129 121 111 111 111 106 105 115 121 125 127 125 125 129 135 136 134 131 130 134 139 150 150 144
57 52 294 245 188 153 163 175 169 156 150 139 139 165 169 161 164 164 162 159 159 153 152 143 132 124 119 112 112 112 110 113 115 119 121 125 125 130 135 140 141 144 141 131 136 142 156 161 156
176 168 234 240 178 96 158 182 175 165 139 162 186 166 159 162 165 175 173 165 162 157 150 144 129 118 116 112 111 110 111 115 122 128 133 133 131 133 132 143 144 143 135 128 141 149 161 168 165
26 227 249 295 78 132 136 138 143 139 158 101 125 145 159 162 172 170 167 165 162 160 152 146 132 120 114 116 116 108 111 110 117 120 129 131 134 139 140 148 146 146 140 133 144 157 154 173 181
185 243 345 194 143 142 149 172 128 136 201 174 152 156 160 159 164 166 165 163 159 163 151 149 137 127 110 118 119 115 119 108 110 123 114 150 146 151 159 164 152 164 160 155 146 161 168 179 196
260 250 274 252 144 143 160 157 106 152 184 175 167 160 159 157 153 157 168 164 164 157 156 148 150 142 131 124 124 130 125 112 115 113 128 162 183 163 163 170 163 174 179 169 162 167 176 198 189
203 300 313 316 153 117 117 123 104 99 137 148 145 156 159 159 159 149 160 172 170 157 151 152 150 141 143 148 132 118 131 125 123 139 110 171 195 175 195 177 169 175 199 204 219 203 238 211 238
232 282 289 308 134 128 116 126 91 128 136 145 157 159 163 166 167 158 147 170 172 164 163 160 166 160 164 162 157 142 153 152 177 189 229 307 230 243 261 192 177 184 210 195 203 201 237 197 180
286 300 343 268 118 122 112 85 128 150 144 145 160 166 169 171 175 173 164 154 161 162 168 177 175 176 181 180 172 159 173 184 225 234 244 262 298 261 221 190 196 206 209 227 178 176 138 187 177
341 13 57 209 145 142 97 126 149 157 148 151 160 169 175 181 183 186 179 175 170 167 170 181 188 187 190 196 198 183 188 183 173 225 267 264 264 258 220 198 198 217 219 192 176 174 159 156 178
235 261 211 193 140 126 94 123 166 162 156 155 171 177 180 179 186 196 196 195 200 190 191 193 193 194 204 217 208 209 205 192 216 254 277 275 326 323 199 191 207 219 216 212 209 193 177 173 180
165 244 179 187 193 111 113 130 157 166 162 165 175 184 186 185 193 196 198 206 194 191 196 195 211 209 210 202 207 198 203 202 215 239 271 309 329 316 270 198 201 206 215 212 214 206 197 195 187
199 239 205 234 209 101 125 128 158 165 169 165 178 187 190 194 194 201 201 200 191 194 208 213 209 203 209 199 183 202 192 202 211 222 256 285 314 30 267 232 219 220 208 216 217 215 218 206 194
228 222 200 184 131 89 92 125 154 171 175 171 178 191 197 197 196 199 197 199 199 199 198 194 206 214 203 199 213 216 208 203 187 226 254 274 284 309 313 304 256 253 189 183 223 226 220 215 203
318 135 177 161 171 91 129 64 175 199 166 173 182 194 197 197 197 198 199 203 207 210 207 205 210 207 212 211 219 213 207 204 217 230 239 254 261 303 315 304 280 258 218 229 235 215 214 223 207
298 168 129 132 131 164 187 191 233 176 181 177 187 191 195 201 206 210 209 213 214 210 213 216 217 224 233 227 232 231 229 214 213 212 254 244 254 274 283 305 295 270 252 236 230 225 225 226 222
217 234 118 161 113 126 229 99 241 130 200 196 187 197 198 198 205 207 210 214 218 220 220 219 226 235 234 225 237 235 235 228 230 239 245 247 235 253 258 262 255 260 274 263 244 232 244 231 225
333 2 35 71 128 121 206 102 16 328 224 201 195 199 200 203 207 216 221 222 225 228 226 226 227 232 229 229 234 239 232 222 217 225 246 239 248 343 268 250 251 261 252 247 249 248 239 227 225
78 61 319 342 28 209 151 66 224 301 310 130 160 173 212 208 210 211 215 216 223 225 217 222 224 226 227 231 232 238 242 232 228 228 242 244 256 257 244 125 247 237 245 240 234 244 241 233 238
192 151 154 226 143 84 36 131 250 166 299 199 145 139 159 185 204 216 214 210 214 220 214 213 218 219 219 223 230 234 236 235 236 234 239 250 253 257 274 286 297 251 241 247 237 238 242 243 239
270 247 191 102 61 101 160 329 305 327 263 241 114 149 154 141 179 224 220 234 228 218 218 216 218 223 220 223 225 230 232 232 237 244 240 242 247 248 264 269 278 250 278 252 250 247 244 246 248
168 223 14 26 138 102 349 214 216 244 251 292 128 153 170 121 197 232 210 248 241 237 229 220 221 222 228 229 231 238 239 243 244 249 253 244 246 251 249 254 256 265 270 266 246 255 252 250 248
10 352 39 114 124 150 117 260 216 220 224 231 58 205 170 148 174 223 240 285 250 236 235 234 227 232 236 240 245 244 252 252 252 253 263 253 248 245 248 256 265 264 271 267 258 257 260 256 259
170 204 139 112 311 48 118 253 236 237 296 280 330 305 96 173 168 220 268 273 233 229 231 233 234 238 241 246 251 254 258 257 255 260 260 260 252 250 257 259 263 265 267 260 260 260 261 259 259